Cato Island Observation History
Time Wind Speed Temp Pressure Rel. Hum Rain
04/03:30am - 22-25 kts 21.8°c 1020.0 hPa n/a n/a
04/03:00am - 21-25 kts 21.7°c 1020.1 hPa n/a n/a
04/02:30am - 19-24 kts 21.8°c 1020.3 hPa n/a n/a
04/02:00am - 19-23 kts 21.6°c 1020.3 hPa n/a n/a
04/01:30am - 17-19 kts 21.7°c 1020.6 hPa n/a n/a
04/01:00am - 17-21 kts 21.3°c 1020.9 hPa n/a n/a
04/12:30am - 17-23 kts 21.2°c 1021.1 hPa n/a n/a
04/12:00am - 15-19 kts 21.2°c 1021.1 hPa n/a n/a
Time Wind Speed Temp Pressure Rel. Hum Rain
03/11:30pm - 15-21 kts 21.1°c 1021.3 hPa n/a n/a
03/11:00pm - 15-17 kts 21.5°c 1021.2 hPa n/a n/a
03/10:30pm - 15-22 kts 21.6°c 1021.5 hPa n/a n/a
03/10:00pm - 14-16 kts 21.0°c 1021.3 hPa n/a n/a
03/09:30pm - 13-18 kts 21.2°c 1021.3 hPa n/a n/a
03/09:00pm - 12-17 kts 21.2°c 1021.2 hPa n/a n/a
03/08:30pm - 12-16 kts 21.2°c 1021.0 hPa n/a n/a
03/08:00pm - 12-15 kts 21.1°c 1020.7 hPa n/a n/a
03/07:30pm - 12-16 kts 21.2°c 1020.5 hPa n/a n/a
03/07:00pm - 11-13 kts 21.3°c 1020.1 hPa n/a n/a
03/06:30pm - 10-15 kts 21.2°c 1019.8 hPa n/a n/a
03/06:00pm - 9-11 kts 21.1°c 1019.4 hPa n/a n/a
03/05:30pm - 11-14 kts 21.1°c 1018.9 hPa n/a n/a
03/05:00pm - 10-13 kts 21.2°c 1018.6 hPa n/a n/a
03/04:30pm - 11-13 kts 21.4°c 1018.5 hPa n/a n/a
03/04:00pm - 10-13 kts 21.5°c 1018.1 hPa n/a n/a
03/03:30pm - 10-12 kts 21.4°c 1018.0 hPa n/a n/a
03/03:00pm - 10-14 kts 21.7°c 1018.0 hPa n/a n/a
03/02:30pm - 10-13 kts 21.6°c 1017.8 hPa n/a n/a
03/02:00pm - 10-11 kts 21.7°c 1017.9 hPa n/a n/a
03/01:30pm - 10-12 kts 22.0°c 1018.0 hPa n/a n/a
03/01:00pm - 11-13 kts 22.2°c 1018.3 hPa n/a n/a
03/12:30pm - 10-13 kts 22.2°c 1018.7 hPa n/a n/a
03/12:00pm - 9-11 kts 22.4°c 1019.2 hPa n/a n/a
03/11:30am - 9-12 kts 22.5°c 1019.6 hPa n/a n/a
03/11:00am - 6-8 kts 22.2°c 1020.2 hPa n/a n/a
03/10:30am - 8-11 kts 22.2°c 1020.4 hPa n/a n/a
03/10:00am - 8-11 kts 22.2°c 1020.5 hPa n/a n/a
03/09:30am - 9-11 kts 22.2°c 1020.5 hPa n/a n/a
03/09:00am - 9-12 kts 22.0°c 1020.5 hPa n/a n/a
03/08:30am - 10-13 kts 21.9°c 1020.3 hPa n/a n/a
03/08:00am - 10-13 kts 21.8°c 1020.4 hPa n/a n/a
03/07:30am - 11-13 kts 21.6°c 1020.0 hPa n/a n/a
03/07:00am - 12-15 kts 21.8°c 1019.6 hPa n/a n/a
03/06:30am - 12-14 kts 21.6°c 1019.3 hPa n/a n/a
03/06:00am - 13-16 kts 21.7°c 1019.0 hPa n/a n/a
03/05:30am - 13-15 kts 21.5°c 1018.6 hPa n/a n/a
03/05:00am - 14-18 kts 21.6°c 1018.4 hPa n/a n/a
03/04:30am - 14-17 kts 21.2°c 1018.3 hPa n/a n/a
03/04:00am - 14-17 kts 21.2°c 1018.3 hPa n/a n/a
03/03:30am - 13-17 kts 21.2°c 1018.4 hPa n/a n/a
03/03:00am - 14-16 kts 21.1°c 1018.6 hPa n/a n/a
03/02:30am - 14-19 kts 21.1°c 1018.9 hPa n/a n/a
03/02:00am - 14-18 kts 21.3°c 1019.0 hPa n/a n/a
03/01:30am - 15-18 kts 21.3°c 1019.0 hPa n/a n/a
03/01:00am - 14-16 kts 21.2°c 1019.2 hPa n/a n/a
03/12:30am - 14-17 kts 21.3°c 1019.5 hPa n/a n/a
03/12:00am - 15-18 kts 21.3°c 1019.4 hPa n/a n/a
Time Wind Speed Temp Pressure Rel. Hum Rain
02/11:30pm - 14-17 kts 21.7°c 1019.6 hPa n/a n/a
02/11:00pm - 15-19 kts 21.7°c 1019.5 hPa n/a n/a
02/10:30pm - 14-17 kts 21.8°c 1019.5 hPa n/a n/a
02/10:00pm - 15-17 kts 22.0°c 1019.7 hPa n/a n/a
02/09:30pm - 13-15 kts 22.1°c 1019.6 hPa n/a n/a
02/09:00pm - 13-14 kts 22.3°c 1019.7 hPa n/a n/a
02/08:30pm - 12-14 kts 22.5°c 1019.6 hPa n/a n/a
02/08:00pm - 13-15 kts 22.5°c 1019.4 hPa n/a n/a
02/07:30pm - 14-16 kts 22.6°c 1019.3 hPa n/a n/a
02/07:00pm - 15-18 kts 22.4°c 1019.1 hPa n/a n/a
02/06:30pm - 15-19 kts 22.5°c 1018.8 hPa n/a n/a
02/06:00pm - 15-18 kts 22.8°c 1018.4 hPa n/a n/a
02/05:30pm - 15-18 kts 22.7°c 1018.1 hPa n/a n/a
02/05:00pm - 15-17 kts 23.0°c 1017.9 hPa n/a n/a
02/04:30pm - 16-18 kts 23.0°c 1017.6 hPa n/a n/a
02/04:00pm - 16-19 kts 23.1°c 1017.4 hPa n/a n/a
02/03:30pm - 17-19 kts 23.5°c 1017.0 hPa n/a n/a
02/03:00pm - 16-20 kts 23.6°c 1016.9 hPa n/a n/a
02/02:30pm - 18-21 kts 23.7°c 1016.8 hPa n/a n/a
02/02:00pm - 17-21 kts 23.8°c 1016.9 hPa n/a n/a
02/01:30pm - 16-19 kts 25.2°c 1016.7 hPa n/a n/a
02/01:00pm - 16-19 kts 25.3°c 1016.8 hPa n/a n/a
02/12:30pm - 15-19 kts 25.1°c 1016.9 hPa n/a n/a
02/12:00pm - 15-19 kts 25.0°c 1017.3 hPa n/a n/a
02/11:30am - 12-15 kts 25.0°c 1017.7 hPa n/a n/a
02/11:00am - 12-15 kts 24.9°c 1018.0 hPa n/a n/a
02/10:30am - 11-14 kts 24.8°c 1018.1 hPa n/a n/a
02/10:00am - 11-14 kts 24.6°c 1018.3 hPa n/a n/a
02/09:30am - 11-13 kts 24.5°c 1018.4 hPa n/a n/a
02/09:00am - 11-13 kts 24.0°c 1018.4 hPa n/a n/a
02/08:30am - 11-12 kts 23.8°c 1018.5 hPa n/a n/a
02/08:00am - 10-11 kts 23.5°c 1018.4 hPa n/a n/a
02/07:30am - 10-13 kts 23.1°c 1018.2 hPa n/a n/a
02/07:00am - 10-11 kts 22.7°c 1017.9 hPa n/a n/a
02/06:30am - 9-11 kts 22.2°c 1017.4 hPa n/a n/a
02/06:00am - 8-10 kts 21.8°c 1017.4 hPa n/a n/a
02/05:30am - 9-11 kts 21.9°c 1017.0 hPa n/a n/a
02/05:00am - 1-3 kts 21.8°c 1016.7 hPa n/a n/a
02/04:30am - 1-3 kts 21.7°c 1016.5 hPa n/a n/a
02/04:00am CALM 0-3 kts 21.2°c 1016.6 hPa n/a n/a
02/03:30am CALM 0-2 kts 21.3°c 1016.7 hPa n/a n/a
02/03:00am - 1-3 kts 20.9°c 1016.8 hPa n/a n/a
02/02:30am CALM 0-2 kts 21.5°c 1016.8 hPa n/a n/a
02/02:00am CALM 0-3 kts 21.3°c 1016.8 hPa n/a n/a
02/01:30am CALM 0-1 kts 21.6°c 1016.9 hPa n/a n/a
02/01:00am CALM 0-2 kts 21.7°c 1017.2 hPa n/a n/a
02/12:30am CALM 0-1 kts 21.6°c 1017.3 hPa n/a n/a
02/12:00am CALM 0-1 kts 21.6°c 1017.4 hPa n/a n/a